This is the latest recevied weather packets stored in our database for station/object KJ4EWA. If no packets are shown the sender has not sent any weather packets the latest 10 day(s).
| Time | Temp. | Humidity | Pressure | Rain* | Wind** | Luminosity | Snow |
|---|---|---|---|---|---|---|---|
| 1777223012 | 27.78° C | 84% | 1015.6 hPa | 0 mm | - | 120 W/m² | - |
| 1777222709 | 27.78° C | 81% | 1016 hPa | 0 mm | - | 202 W/m² | - |
| 1777222406 | 28.33° C | 82% | 1016 hPa | 0 mm | - | 274 W/m² | - |
| 1777222104 | 27.78° C | 83% | 1015.9 hPa | 0 mm | - | 279 W/m² | - |
| 1777221800 | 27.78° C | 83% | 1016.1 hPa | 0 mm | - | 210 W/m² | - |
| 1777221497 | 27.78° C | 81% | 1016 hPa | 0 mm | - | 259 W/m² | - |
| 1777221194 | 28.33° C | 81% | 1015.9 hPa | 0 mm | - | 300 W/m² | - |
| 1777220890 | 28.33° C | 81% | 1016 hPa | 0 mm | - | 361 W/m² | - |
| 1777220586 | 28.33° C | 80% | 1016 hPa | 0 mm | - | 355 W/m² | - |
| 1777220282 | 28.33° C | 81% | 1015.9 hPa | 0 mm | - | 354 W/m² | - |
| 1777219977 | 27.78° C | 83% | 1016.2 hPa | 0 mm | - | 347 W/m² | - |
| 1777219675 | 27.22° C | 82% | 1016.5 hPa | 0 mm | - | 267 W/m² | - |
| 1777219372 | 27.78° C | 81% | 1016.4 hPa | 0 mm | - | 265 W/m² | - |
| 1777219068 | 27.78° C | 81% | 1016.1 hPa | 0 mm | - | 273 W/m² | - |
| 1777218759 | 28.33° C | 79% | 1016.1 hPa | 0 mm | - | 270 W/m² | - |
| 1777218453 | 28.89° C | 81% | 1016.2 hPa | 0 mm | - | 390 W/m² | - |
| 1777218150 | 28.89° C | 82% | 1016.1 hPa | 0 mm | - | 436 W/m² | - |
| 1777217847 | 28.33° C | 81% | 1016.1 hPa | 0 mm | - | 542 W/m² | - |
| 1777217541 | 27.78° C | 84% | 1016.1 hPa | 0 mm | - | 520 W/m² | - |
| 1777217239 | 27.78° C | 84% | 1016.3 hPa | 0 mm | - | 439 W/m² | - |
| 1777216936 | 27.22° C | 86% | 1016.1 hPa | 0 mm | - | 420 W/m² | - |
| 1777216631 | 26.67° C | 87% | 1016.2 hPa | 0 mm | - | 374 W/m² | - |
| 1777216328 | 26.67° C | 87% | 1016 hPa | 0 mm | - | 363 W/m² | - |
| 1777216026 | 26.67° C | 87% | 1016.1 hPa | 0 mm | - | 330 W/m² | - |
| 1777215721 | 26.67° C | 86% | 1015.9 hPa | 0 mm | - | 327 W/m² | - |
* Rain latest hour (hover to see other rain measurements)
** Current wind speed in m/s (hover to see current wind gust speed)